Regional Weather Roundup
Issued by NWS

Home | Current Version | Previous Version | Text Only | Print | Product List | Glossary On
Versions: 1 2 3 4 5 6 7 8 9 10 11 12 13 14 15 16 17 18 19 20 21 22 23 24 25 26 27
000
ASUS46 KPQR 211310
RWROR

OREGON REGIONAL WEATHER ROUNDUP
NATIONAL WEATHER SERVICE PORTLAND OR
600 AM PDT FRI JUL 21 2017

NOTE: "FAIR" INDICATES FEW OR NO CLOUDS BELOW 12,000 FEET WITH
NO SIGNIFICANT WEATHER AND/OR OBSTRUCTIONS TO VISIBILITY.

ORZ001>013-211400-
NORTHWEST OREGON


CITY           SKY/WX    TMP DP  RH WIND       PRES   REMARKS
ASTORIA        PTCLDY    50  48  93 SE3       30.14R
NEWPORT        PTCLDY    54  52  94 CALM      30.18S
PORTLAND       PTCLDY    58  54  86 E3        30.14S
VANCOUVER WA   CLOUDY    59  55  87 CALM      30.14R
SCAPPOOSE      CLEAR     50  50 100 W3        30.13S
HILLSBORO      PTCLDY    50  48  93 CALM      30.14R
AURORA         CLEAR     53  50  89 CALM      30.15S
MCMINNVILLE    CLEAR     52  49  89 CALM      30.15R
SALEM          CLEAR     52  49  89 S3        30.13F
CORVALLIS      CLEAR     48  46  93 CALM      30.15S
EUGENE         PTCLDY    47  47 100 S6        30.15S
$$

ORZ021-028-211400-
SOUTHWEST OREGON


CITY           SKY/WX    TMP DP  RH WIND       PRES   REMARKS
NORTH BEND     MOCLDY    50  50 100 SE7       30.18R
BROOKINGS      PTCLDY    51  50  96 CALM      30.15S
ROSEBURG       CLEAR     54  50  86 CALM      30.15S
SEXTON SUMMIT  CLEAR     50  49  96 N8        30.16S
GRANTS PASS    FAIR      55  50  82 CALM      30.16R
MEDFORD        CLEAR     58  50  75 NE3       30.11R
$$

ORZ014>016-041-211400-
COLUMBIA GORGE


CITY           SKY/WX    TMP DP  RH WIND       PRES   REMARKS
TROUTDALE      CLEAR     52  49  89 SE3       30.14S
HOOD RIVER     CLEAR     50  45  81 S6        30.12S
THE DALLES     CLEAR     53  48  83 SE6       30.10R
$$

ORZ029>031-041-044-049-050-061>064-502-503-505>511-211400-
EASTERN OREGON


CITY           SKY/WX    TMP DP  RH WIND       PRES   REMARKS
MADRAS         CLEAR     43  41  93 SE6       30.16R
REDMOND        CLEAR     44  37  76 CALM      30.15R
BEND           CLEAR     46  41  81 CALM      30.17R
PRINEVILLE     CLEAR     43  37  81 CALM      30.16S
KLAMATH FALLS  CLEAR     47  45  93 CALM      30.16S
LAKEVIEW       CLEAR     47  37  68 N7        30.19S
HERMISTON      CLEAR     55  46  71 CALM      30.09R
PENDLETON      CLEAR     52  42  69 SE6       30.11R
JOHN DAY       CLEAR     51  41  67 CALM      30.17R
MEACHAM        CLEAR     36  31  82 CALM      30.17R
LA GRANDE      CLEAR     48  34  57 CALM      30.14R
BAKER CITY     CLEAR     49  39  68 S6        30.15R
BURNS          CLEAR     49  35  58 W8        30.16R
ROME             N/A     51  28  41 E6        30.12R
ONTARIO        CLEAR     66  37  34 W8        30.06R
$$




USA.gov is the U.S. government's official web portal to all federal, state and local government web resources and services.